Regional Weather Roundup
Issued by NWS

Home | Current Version | Previous Version | Graphics & Text | Print | Product List | Glossary On
Versions: 1 2 3 4 5 6 7 8 9 10 11 12 13 14 15 16 17 18 19 20 21 22 23 24 25 26 27 28 29 30 31 32 33 34 35 36 37 38 39 40 41 42 43 44 45 46 47 48 49 50
000
ASUS45 KTFX 210710
RWRMT
MONTANA REGIONAL WEATHER ROUNDUP
NATIONAL WEATHER SERVICE GREAT FALLS MT
100 AM MDT SAT APR 21 2018

NOTE: "FAIR" INDICATES FEW OR NO CLOUDS BELOW 12000 FEET WITH NO
SIGNIFICANT WEATHER AND/OR OBSTRUCTIONS TO VISIBILITY.

MTZ001>007-043-210800-
WEST OF THE DIVIDE

CITY           SKY/WX    TMP DP  RH WIND       PRES   REMARKS
KALISPELL      FAIR      36  32  85 CALM      30.07S
MISSOULA       FAIR      42  29  59 VRB3      30.11R
BUTTE          FAIR      34  25  69 SE5       30.16R
MULLAN PASS    FAIR      39  29  67 SW6       30.12F
ANACONDA         N/A     36  25  64 SW6       30.14S WCI  31
DEER LODGE       N/A     36  27  69 W3        30.15S
HAMILTON         N/A     43  28  56 MISG      30.12S
RONAN            N/A     41  34  75 CALM      30.10R
$$

MTZ008-052>055-210800-
SOUTHWEST MONTANA

CITY           SKY/WX    TMP DP  RH WIND       PRES   REMARKS
BOZEMAN        FAIR      38  29  70 S6        30.11R
DILLON         FAIR      39  25  57 SW10      30.13R
ENNIS          CLEAR     36  25  64 NE3       30.17R
W YELLOWSTONE  FAIR      27  25  93 CALM      30.16R
THREE FORKS      N/A     38  30  73 CALM      30.08S
$$

MTZ009-010-012-014-046-048-049-054-210800-
EAST SLOPES AND CENTRAL MONTANA

CITY           SKY/WX    TMP DP  RH WIND       PRES   REMARKS
CUT BANK       FAIR      41  27  57 W8        30.03F
GREAT FALLS    FAIR      42  23  46 SW7       30.07R
HELENA         FAIR      45  27  49 CALM      30.10R
AUGUSTA        FAIR      43  24  46 W6        30.07S
BOWMANS CRNR   FAIR      43  22  42 SW7       30.06S
CHOTEAU          N/A     45  25  45 SW3       30.07F
FAIRFIELD      FAIR      40  27  59 CALM      30.06R
POWER          FAIR      34  28  79 W6        30.05R WCI  28
RAYNESFORD     FAIR      39  25  57 NE5       30.08S HAZE
ULM            FAIR      40  24  54 CALM      30.07S
WHITE SULPHUR    N/A     30  25  80 S6        30.11R WCI  24
$$

MTZ011-013-016-021-045-047-050-051-210800-
NORTH CENTRAL MONTANA

CITY           SKY/WX    TMP DP  RH WIND       PRES   REMARKS
HAVRE          FAIR      43  32  65 E3        30.03F
LEWISTOWN      FAIR      41  32  70 CALM      30.08S
N BAR RANCH    FAIR      37  30  75 W9        30.13S WCI  31
CHINOOK          N/A     45  37  76 CALM      30.04F
GEYSER         FAIR      41  30  65 SW9       30.07S
GRASS RANGE    FAIR      44  33  65 W5        30.05F
STANFORD       FAIR      41  32  71 SW12      30.08S
$$

MTZ017>020-022>027-061-062-210800-
NORTHEAST MONTANA

CITY           SKY/WX    TMP DP  RH WIND       PRES   REMARKS
GLASGOW        FAIR      44  36  73 E14       30.06S
GLENDIVE       FAIR      41  37  86 S12       30.13F
JORDAN           N/A     46  36  68 CALM      30.07S
MALTA          CLEAR     46  39  76 CALM      30.04S
SIDNEY         FAIR      41  36  82 S8        30.16R
WOLF POINT     FAIR      49  38  65 SE6       30.10S
PLENTYWOOD       N/A     45  36  70 CALM      30.12S
POPLAR           N/A     46  37  71 SE8       30.11F
$$

MTZ028>42-056>058-210800-
SOUTHCENTRAL AND SOUTHEAST MONTANA

CITY           SKY/WX    TMP DP  RH WIND       PRES   REMARKS
BAKER          FAIR      38  37  97 SE14      30.15R WCI  30
BILLINGS       FAIR      49  36  61 S7        30.09S
LIVINGSTON     FAIR      36  29  75 CALM      30.11S
MILES CITY     FAIR      45  40  82 SE14      30.09S
BIG TIMBER     CLEAR     43  32  65 CALM      30.12S
FORSYTH          N/A     45  39  81 E3        30.08S
HARLOWTON      FAIR      37  33  84 N8        30.11S WCI  31
LAUREL           N/A     50  34  53 CALM      30.11R
$$

REGIONAL REPORTS...DAKOTAS

CITY           SKY/WX    TMP DP  RH WIND       PRES   REMARKS
WILLISTON      FAIR      45  38  76 SE8       30.16R
MINOT          FAIR      47  35  63 S16G26    30.19R
DICKINSON      FAIR      39  36  89 S13       30.18F WCI  31
BEACH          CLOUDY    37  37 100 SE15      30.19R WCI  28
CROSBY         FAIR      41  36  81 S14       30.15R
TIOGA          FAIR      37  37 100 S5        30.19R
WATFORD CITY   FAIR      43  37  81 S12       30.17R
BISMARCK       FAIR      35  32  88 SE8       30.28S WCI  29
GRAND FORKS    FAIR      36  36 100 S9        30.34R WCI  29
FARGO          FAIR      38  34  85 S9        30.36S WCI  31
BUFFALO SD       N/A     41  37  86 S22G28    30.12
RAPID CITY     CLOUDY    38  37  97 SE16      30.25R WCI  29
$$

REGIONAL REPORTS...WYOMING/IDAHO/WASHINGTON

CITY           SKY/WX    TMP DP  RH WIND       PRES   REMARKS
GILLETTE       FAIR      38  34  85 S15       30.16R WCI  29
SHERIDAN       FAIR      38  32  79 S3        30.11S
BUFFALO WY     FAIR      37  33  85 SE12      30.14S WCI  29
CODY           FAIR      45  32  60 W6        30.13F
YELLOWSTONE LA   N/A     26  21  81 CALM      30.21R
IDAHO FALLS    FAIR      41  31  67 SW10      30.13R
SALMON         FAIR      39  29  67 SE6       30.14R
BOISE          FAIR      50  32  50 VRB3      30.11R
SPOKANE        CLOUDY    52  33  48 S5        30.08F
$$

REGIONAL REPORTS...ALBERTA

CITY           SKY/WX    TMP DP  RH WIND       PRES   REMARKS
CALGARY        MOCLDY    43  28  56 S5        29.93F
CARDSTON         N/A     45  28  53 SW7         N/A
EDMONTON       PTCLDY    41  23  48 SE9       29.89F
FORT MCMURRAY  PTCLDY    45  25  45 S5        29.91F
HIGH LEVEL     CLEAR     36  21  55 SE3       29.80S
LETHBRIDGE     PTCLDY    41  30  65 SW8       29.97F
LLOYDMINSTER   CLOUDY    39  34  81 S6        29.97F
MEDICINE HAT   PTCLDY    41  30  65 S8        29.99F
MILK RIVER       N/A     36  30  80 W3          N/A
PEACE RIVER    MOCLDY    32  27  80 N6        29.84F WCI  26
PINCHER CREEK  MOCLDY    46  28  49 SW13      30.00S
$$

REGIONAL REPORTS...SASKATCHEWAN

CITY           SKY/WX    TMP DP  RH WIND       PRES   REMARKS
CORONACH         N/A     41  34  75 SE6         N/A
CYPRESS HILLS    N/A     41  25  52 S7          N/A
ESTEVAN        PTCLDY    45  36  70 S16       30.14S
MOOSE JAW        N/A     39  34  81 E3          N/A
PRINCE ALBERT  PTCLDY    32  28  86 E7        30.04F WCI  26
REGINA         PTCLDY    39  34  81 SE16      30.09S WCI  30
ROCKGLEN         N/A     45  32  61 S10         N/A
SASKATOON      PTCLDY    48  37  66 S14       30.00S
SWIFT CURRENT  MOCLDY    43  30  61 SW13      30.03S
VAL MARIE        N/A     34  32  93 E6          N/A  WCI  29
$$



USA.gov is the U.S. government's official web portal to all federal, state and local government web resources and services.